Time,TemperatureF,DewpointF,PressureIn,WindDirection,WindDirectionDegrees,WindSpeedMPH,WindSpeedGustMPH,Humidity,HourlyPrecipIn,Conditions,Clouds,dailyrainin,SoftwareType,DateUTC
2013-02-15 00:00:00,32.5,23.5,30.02,SW,224,0.0,2.0,69,0.00,,,0.00,meteohub,2013-02-15 05:00:00,
2013-02-15 00:05:00,32.5,23.5,30.02,SW,224,0.0,3.0,69,0.00,,,0.00,meteohub,2013-02-15 05:05:00,
2013-02-15 00:10:00,32.5,23.5,30.02,SW,224,0.0,1.0,69,0.00,,,0.00,meteohub,2013-02-15 05:10:00,
2013-02-15 00:15:00,32.4,23.4,30.02,SW,224,0.0,1.0,69,0.00,,,0.00,meteohub,2013-02-15 05:15:00,
2013-02-15 00:20:00,32.2,23.5,30.02,SW,224,1.0,2.0,70,0.00,,,0.00,meteohub,2013-02-15 05:20:00,
2013-02-15 00:25:00,32.0,23.4,30.02,SW,224,0.0,4.0,70,0.00,,,0.00,meteohub,2013-02-15 05:25:00,
2013-02-15 00:31:00,32.0,23.4,30.02,SW,224,0.0,4.0,70,0.00,,,0.00,meteohub,2013-02-15 05:31:00,
2013-02-15 00:36:00,32.0,23.7,30.02,SW,224,0.0,4.0,71,0.00,,,0.00,meteohub,2013-02-15 05:36:00,
2013-02-15 00:41:00,32.0,23.7,30.02,SW,224,0.0,3.0,71,0.00,,,0.00,meteohub,2013-02-15 05:41:00,
2013-02-15 00:46:00,31.8,23.5,30.02,SW,224,0.0,3.0,71,0.00,,,0.00,meteohub,2013-02-15 05:46:00,
2013-02-15 00:51:00,31.8,23.9,30.02,SW,224,0.0,2.0,72,0.00,,,0.00,meteohub,2013-02-15 05:51:00,
2013-02-15 00:56:00,31.6,23.4,30.02,SW,224,0.0,1.0,71,0.00,,,0.00,meteohub,2013-02-15 05:56:00,
2013-02-15 01:01:00,31.3,23.4,30.02,SW,224,0.0,1.0,72,0.00,,,0.00,meteohub,2013-02-15 06:01:00,
2013-02-15 01:06:00,31.1,23.2,30.02,SW,224,0.0,1.0,72,0.00,,,0.00,meteohub,2013-02-15 06:06:00,
2013-02-15 01:11:00,30.9,23.4,30.02,SW,224,0.0,1.0,73,0.00,,,0.00,meteohub,2013-02-15 06:11:00,
2013-02-15 01:16:00,30.9,23.5,30.02,SW,224,0.0,1.0,74,0.00,,,0.00,meteohub,2013-02-15 06:16:00,
2013-02-15 01:21:00,30.9,23.5,30.02,SW,224,0.0,1.0,74,0.00,,,0.00,meteohub,2013-02-15 06:21:00,
2013-02-15 01:26:00,30.9,23.5,30.03,SW,224,0.0,1.0,74,0.00,,,0.00,meteohub,2013-02-15 06:26:00,
2013-02-15 01:31:00,30.9,23.5,30.03,SW,224,0.0,2.0,74,0.00,,,0.00,meteohub,2013-02-15 06:31:00,
2013-02-15 01:36:00,30.7,23.4,30.03,SW,224,0.0,2.0,74,0.00,,,0.00,meteohub,2013-02-15 06:36:00,
2013-02-15 01:41:00,30.6,23.2,30.03,SW,224,0.0,1.0,74,0.00,,,0.00,meteohub,2013-02-15 06:41:00,
2013-02-15 01:46:00,30.4,23.4,30.03,SW,224,0.0,0.0,75,0.00,,,0.00,meteohub,2013-02-15 06:46:00,
2013-02-15 01:51:00,30.4,23.7,30.03,SW,224,0.0,1.0,76,0.00,,,0.00,meteohub,2013-02-15 06:51:00,
2013-02-15 01:56:00,30.6,23.9,30.03,SW,224,0.0,2.0,76,0.00,,,0.00,meteohub,2013-02-15 06:56:00,
2013-02-15 02:01:00,30.6,24.3,30.02,SW,224,1.0,2.0,77,0.00,,,0.00,meteohub,2013-02-15 07:01:00,
2013-02-15 02:06:00,30.7,24.4,30.02,SW,224,1.0,2.0,77,0.00,,,0.00,meteohub,2013-02-15 07:06:00,
2013-02-15 02:11:00,30.9,24.6,30.02,SW,224,2.0,3.0,77,0.00,,,0.00,meteohub,2013-02-15 07:11:00,
2013-02-15 02:16:00,31.3,25.2,30.02,SW,224,0.0,3.0,78,0.00,,,0.00,meteohub,2013-02-15 07:16:00,
2013-02-15 02:21:00,31.5,25.3,30.02,SW,224,0.0,3.0,78,0.00,,,0.00,meteohub,2013-02-15 07:21:00,
2013-02-15 02:26:00,31.5,25.3,30.02,SW,224,0.0,3.0,78,0.00,,,0.00,meteohub,2013-02-15 07:26:00,
2013-02-15 02:31:00,31.5,25.3,30.02,SW,218,2.0,3.0,78,0.00,,,0.00,meteohub,2013-02-15 07:31:00,
2013-02-15 02:36:00,31.6,25.9,30.02,South,184,1.0,4.0,79,0.00,,,0.00,meteohub,2013-02-15 07:36:00,
2013-02-15 02:41:00,31.8,26.1,30.02,South,184,2.0,5.0,79,0.00,,,0.00,meteohub,2013-02-15 07:41:00,
2013-02-15 02:46:00,31.8,26.1,30.02,SSW,199,3.0,5.0,79,0.00,,,0.00,meteohub,2013-02-15 07:46:00,
2013-02-15 02:51:00,32.0,26.2,30.02,SSW,205,1.0,6.0,79,0.00,,,0.00,meteohub,2013-02-15 07:51:00,
2013-02-15 02:56:00,31.8,26.1,30.02,SSW,200,1.0,6.0,79,0.00,,,0.00,meteohub,2013-02-15 07:56:00,
2013-02-15 03:01:00,32.0,26.6,30.02,SSW,204,2.0,6.0,80,0.00,,,0.00,meteohub,2013-02-15 08:01:00,
2013-02-15 03:06:00,32.2,27.0,30.02,SSW,201,3.0,8.0,81,0.00,,,0.00,meteohub,2013-02-15 08:06:00,
2013-02-15 03:11:00,32.4,27.1,30.02,SSW,199,1.0,8.0,81,0.00,,,0.00,meteohub,2013-02-15 08:11:00,
2013-02-15 03:16:00,32.4,27.1,30.02,SW,218,4.0,8.0,81,0.00,,,0.00,meteohub,2013-02-15 08:16:00,
2013-02-15 03:21:00,32.4,27.1,30.02,SW,224,2.0,6.0,81,0.00,,,0.00,meteohub,2013-02-15 08:21:00,
2013-02-15 03:26:00,32.2,27.3,30.02,WSW,245,0.0,6.0,82,0.00,,,0.00,meteohub,2013-02-15 08:26:00,
2013-02-15 03:31:00,32.2,27.3,30.02,SSW,200,0.0,6.0,82,0.00,,,0.00,meteohub,2013-02-15 08:31:00,
2013-02-15 03:36:00,32.2,27.7,30.02,SW,229,3.0,5.0,83,0.00,,,0.00,meteohub,2013-02-15 08:36:00,
2013-02-15 03:41:00,32.0,27.5,30.02,SW,228,0.0,5.0,83,0.00,,,0.00,meteohub,2013-02-15 08:41:00,
2013-02-15 03:46:00,31.8,27.3,30.02,SSW,192,2.0,5.0,83,0.00,,,0.00,meteohub,2013-02-15 08:46:00,
2013-02-15 03:51:00,31.8,27.5,30.01,South,180,2.0,6.0,84,0.00,,,0.00,meteohub,2013-02-15 08:51:00,
2013-02-15 03:56:00,31.8,27.5,30.01,South,180,0.0,6.0,84,0.00,,,0.00,meteohub,2013-02-15 08:56:00,
2013-02-15 04:01:00,31.8,27.9,30.02,South,180,0.0,6.0,85,0.00,,,0.00,meteohub,2013-02-15 09:01:00,
2013-02-15 04:06:00,31.8,27.9,30.02,South,180,0.0,4.0,85,0.00,,,0.00,meteohub,2013-02-15 09:06:00,
2013-02-15 04:11:00,31.6,27.7,30.02,South,180,0.0,4.0,85,0.00,,,0.00,meteohub,2013-02-15 09:11:00,
2013-02-15 04:16:00,31.5,27.5,30.02,South,180,0.0,4.0,85,0.00,,,0.00,meteohub,2013-02-15 09:16:00,
2013-02-15 04:21:00,31.3,27.3,30.02,South,180,0.0,1.0,85,0.00,,,0.00,meteohub,2013-02-15 09:21:00,
2013-02-15 04:26:00,31.1,27.3,30.02,South,180,0.0,1.0,86,0.00,,,0.00,meteohub,2013-02-15 09:26:00,
2013-02-15 04:31:00,31.1,27.3,30.02,South,180,0.0,4.0,86,0.00,,,0.00,meteohub,2013-02-15 09:31:00,
2013-02-15 04:36:00,30.9,27.1,30.03,South,180,1.0,4.0,86,0.00,,,0.00,meteohub,2013-02-15 09:36:00,
2013-02-15 04:41:00,30.7,27.1,30.03,South,180,1.0,4.0,86,0.00,,,0.00,meteohub,2013-02-15 09:41:00,
2013-02-15 04:46:00,30.6,27.1,30.02,South,180,1.0,2.0,87,0.00,,,0.00,meteohub,2013-02-15 09:46:00,
2013-02-15 04:51:00,30.9,27.9,30.03,South,180,0.0,4.0,88,0.00,,,0.00,meteohub,2013-02-15 09:51:00,
2013-02-15 04:56:00,30.9,27.9,30.02,South,180,0.0,4.0,88,0.00,,,0.00,meteohub,2013-02-15 09:56:00,
2013-02-15 05:01:00,30.9,27.9,30.02,South,180,1.0,4.0,88,0.00,,,0.00,meteohub,2013-02-15 10:01:00,
2013-02-15 05:06:00,30.9,27.9,30.02,South,180,0.0,5.0,88,0.00,,,0.00,meteohub,2013-02-15 10:06:00,
2013-02-15 05:11:00,31.1,28.0,30.02,South,180,0.0,5.0,88,0.00,,,0.00,meteohub,2013-02-15 10:11:00,
2013-02-15 05:16:00,31.1,28.0,30.03,South,180,1.0,4.0,88,0.00,,,0.00,meteohub,2013-02-15 10:16:00,
2013-02-15 05:21:00,31.1,28.0,30.03,South,180,1.0,2.0,88,0.00,,,0.00,meteohub,2013-02-15 10:21:00,
2013-02-15 05:26:00,31.3,28.4,30.03,South,180,0.0,2.0,89,0.00,,,0.00,meteohub,2013-02-15 10:26:00,
2013-02-15 05:31:00,31.3,28.4,30.03,South,180,0.0,4.0,89,0.00,,,0.00,meteohub,2013-02-15 10:31:00,
2013-02-15 05:36:00,31.3,28.4,30.03,South,180,2.0,4.0,89,0.00,,,0.00,meteohub,2013-02-15 10:36:00,
2013-02-15 05:41:00,31.5,28.6,30.03,SSE,163,2.0,6.0,89,0.00,,,0.00,meteohub,2013-02-15 10:41:00,
2013-02-15 05:46:00,31.5,28.6,30.03,South,173,0.0,6.0,89,0.00,,,0.00,meteohub,2013-02-15 10:46:00,
2013-02-15 05:51:00,31.6,28.8,30.03,SSE,167,2.0,6.0,89,0.00,,,0.00,meteohub,2013-02-15 10:51:00,
2013-02-15 05:56:00,31.8,28.9,30.02,SSE,167,0.0,5.0,89,0.00,,,0.00,meteohub,2013-02-15 10:56:00,
2013-02-15 06:01:00,31.8,28.9,30.02,SSE,167,2.0,5.0,89,0.00,,,0.00,meteohub,2013-02-15 11:01:00,
2013-02-15 06:06:00,32.2,29.7,30.02,SSE,167,1.0,5.0,90,0.00,,,0.00,meteohub,2013-02-15 11:06:00,
2013-02-15 06:11:00,32.2,29.7,30.02,SSE,167,0.0,5.0,90,0.00,,,0.00,meteohub,2013-02-15 11:11:00,
2013-02-15 06:16:00,32.4,29.8,30.02,SSE,167,0.0,5.0,90,0.00,,,0.00,meteohub,2013-02-15 11:16:00,
2013-02-15 06:21:00,32.2,29.7,30.02,SSE,167,1.0,5.0,90,0.00,,,0.00,meteohub,2013-02-15 11:21:00,
2013-02-15 06:26:00,31.8,29.3,30.02,SSE,167,0.0,2.0,90,0.00,,,0.00,meteohub,2013-02-15 11:26:00,
2013-02-15 06:31:00,32.0,29.5,30.02,SSE,167,0.0,2.0,90,0.00,,,0.00,meteohub,2013-02-15 11:31:00,
2013-02-15 06:37:00,31.8,29.3,30.02,SSE,167,0.0,2.0,90,0.00,,,0.00,meteohub,2013-02-15 11:37:00,
2013-02-15 06:42:00,31.8,29.3,30.02,SSE,167,0.0,0.0,90,0.00,,,0.00,meteohub,2013-02-15 11:42:00,
2013-02-15 06:47:00,31.8,29.3,30.02,SSE,167,0.0,1.0,90,0.00,,,0.00,meteohub,2013-02-15 11:47:00,
2013-02-15 06:52:00,31.6,29.1,30.02,SSE,167,0.0,1.0,90,0.00,,,0.00,meteohub,2013-02-15 11:52:00,
2013-02-15 06:57:00,31.5,28.9,30.03,SSE,167,0.0,1.0,90,0.00,,,0.00,meteohub,2013-02-15 11:57:00,
2013-02-15 07:02:00,31.6,29.1,30.02,SSE,167,1.0,1.0,90,0.00,,,0.00,meteohub,2013-02-15 12:02:00,
2013-02-15 07:07:00,31.8,29.3,30.03,SSE,167,2.0,2.0,90,0.00,,,0.00,meteohub,2013-02-15 12:07:00,
2013-02-15 07:12:00,32.0,29.7,30.03,SSE,167,1.0,4.0,91,0.00,,,0.00,meteohub,2013-02-15 12:12:00,
2013-02-15 07:17:00,32.4,30.0,30.03,SSE,167,1.0,5.0,91,0.00,,,0.00,meteohub,2013-02-15 12:17:00,
2013-02-15 07:22:00,32.4,29.8,30.04,South,182,2.0,5.0,90,0.00,,,0.00,meteohub,2013-02-15 12:22:00,
2013-02-15 07:27:00,32.5,30.2,30.03,SSW,193,2.0,6.0,91,0.00,,,0.00,meteohub,2013-02-15 12:27:00,
2013-02-15 07:32:00,33.1,30.7,30.04,SSW,195,1.0,6.0,91,0.00,,,0.00,meteohub,2013-02-15 12:32:00,
2013-02-15 07:37:00,33.3,30.9,30.03,SSW,195,2.0,6.0,91,0.00,,,0.00,meteohub,2013-02-15 12:37:00,
2013-02-15 07:42:00,33.4,31.1,30.03,South,184,0.0,5.0,91,0.00,,,0.00,meteohub,2013-02-15 12:42:00,
2013-02-15 07:47:00,33.8,31.5,30.04,SW,222,6.0,6.0,91,0.00,,,0.00,meteohub,2013-02-15 12:47:00,
2013-02-15 07:52:00,34.0,31.6,30.04,South,171,4.0,7.0,91,0.00,,,0.00,meteohub,2013-02-15 12:52:00,
2013-02-15 07:57:00,34.2,31.8,30.03,South,186,5.0,7.0,91,0.00,,,0.00,meteohub,2013-02-15 12:57:00,
2013-02-15 08:02:00,34.3,32.0,30.03,SE,145,4.0,7.0,91,0.00,,,0.00,meteohub,2013-02-15 13:02:00,
2013-02-15 08:07:00,34.5,32.2,30.03,SE,144,1.0,7.0,91,0.00,,,0.00,meteohub,2013-02-15 13:07:00,
2013-02-15 08:12:00,34.9,32.2,30.03,South,176,1.0,7.0,90,0.00,,,0.00,meteohub,2013-02-15 13:12:00,
2013-02-15 08:17:00,35.1,32.4,30.03,SSW,193,4.0,6.0,90,0.00,,,0.00,meteohub,2013-02-15 13:17:00,
2013-02-15 08:22:00,35.4,32.7,30.03,SSW,199,1.0,8.0,90,0.00,,,0.00,meteohub,2013-02-15 13:22:00,
2013-02-15 08:27:00,35.8,32.9,30.03,SSW,211,0.0,8.0,89,0.00,,,0.00,meteohub,2013-02-15 13:27:00,
2013-02-15 08:32:00,36.1,33.3,30.02,South,171,1.0,7.0,89,0.00,,,0.00,meteohub,2013-02-15 13:32:00,
2013-02-15 08:37:00,36.7,33.3,30.03,South,171,0.0,6.0,87,0.00,,,0.00,meteohub,2013-02-15 13:37:00,
2013-02-15 08:42:00,37.2,33.8,30.03,South,169,0.0,6.0,87,0.00,,,0.00,meteohub,2013-02-15 13:42:00,
2013-02-15 08:47:00,37.8,33.4,30.03,SE,139,2.0,5.0,84,0.00,,,0.00,meteohub,2013-02-15 13:47:00,
2013-02-15 08:52:00,37.9,33.3,30.03,SE,139,4.0,7.0,83,0.00,,,0.00,meteohub,2013-02-15 13:52:00,
2013-02-15 08:57:00,38.5,33.1,30.03,SE,137,5.0,7.0,81,0.00,,,0.00,meteohub,2013-02-15 13:57:00,
2013-02-15 09:02:00,38.8,32.9,30.03,SW,223,4.0,6.0,79,0.00,,,0.00,meteohub,2013-02-15 14:02:00,
2013-02-15 09:07:00,39.4,31.8,30.03,South,174,5.0,11.0,74,0.00,,,0.00,meteohub,2013-02-15 14:07:00,
2013-02-15 09:12:00,39.7,31.5,30.03,SW,234,5.0,11.0,72,0.00,,,0.00,meteohub,2013-02-15 14:12:00,
2013-02-15 09:17:00,39.9,31.6,30.03,South,187,6.0,13.0,72,0.00,,,0.00,meteohub,2013-02-15 14:17:00,
2013-02-15 09:22:00,39.9,31.6,30.03,South,172,11.0,14.0,72,0.00,,,0.00,meteohub,2013-02-15 14:22:00,
2013-02-15 09:27:00,39.9,32.0,30.03,South,184,11.0,16.0,73,0.00,,,0.00,meteohub,2013-02-15 14:27:00,
2013-02-15 09:32:00,40.3,32.4,30.03,SW,236,0.0,16.0,73,0.00,,,0.00,meteohub,2013-02-15 14:32:00,
2013-02-15 09:37:00,40.6,32.4,30.03,WSW,246,9.0,16.0,72,0.00,,,0.00,meteohub,2013-02-15 14:37:00,
2013-02-15 09:42:00,41.0,32.7,30.03,WSW,243,4.0,14.0,72,0.00,,,0.00,meteohub,2013-02-15 14:42:00,
2013-02-15 09:47:00,41.0,32.4,30.03,SW,230,13.0,17.0,71,0.00,,,0.00,meteohub,2013-02-15 14:47:00,
2013-02-15 09:52:00,41.4,32.7,30.03,South,191,8.0,17.0,71,0.00,,,0.00,meteohub,2013-02-15 14:52:00,
2013-02-15 09:57:00,41.5,32.5,30.03,SSW,204,9.0,17.0,70,0.00,,,0.00,meteohub,2013-02-15 14:57:00,
2013-02-15 10:02:00,41.5,32.5,30.03,South,191,11.0,18.0,70,0.00,,,0.00,meteohub,2013-02-15 15:02:00,
2013-02-15 10:07:00,42.3,32.5,30.03,SSE,164,7.0,18.0,68,0.00,,,0.00,meteohub,2013-02-15 15:07:00,
2013-02-15 10:12:00,42.6,32.4,30.02,SSW,198,9.0,18.0,67,0.00,,,0.00,meteohub,2013-02-15 15:12:00,
2013-02-15 10:17:00,43.2,32.5,30.02,SSE,151,7.0,18.0,66,0.00,,,0.00,meteohub,2013-02-15 15:17:00,
2013-02-15 10:22:00,43.5,32.5,30.02,South,170,7.0,18.0,65,0.00,,,0.00,meteohub,2013-02-15 15:22:00,
2013-02-15 10:27:00,43.9,32.2,30.02,SE,145,7.0,17.0,63,0.00,,,0.00,meteohub,2013-02-15 15:27:00,
2013-02-15 10:32:00,44.1,31.8,30.02,SSW,208,6.0,18.0,62,0.00,,,0.00,meteohub,2013-02-15 15:32:00,
2013-02-15 10:37:00,44.4,31.8,30.02,WSW,238,10.0,19.0,61,0.00,,,0.00,meteohub,2013-02-15 15:37:00,
2013-02-15 10:42:00,44.8,31.8,30.02,SSW,206,23.0,23.0,60,0.00,,,0.00,meteohub,2013-02-15 15:42:00,
2013-02-15 10:47:00,45.1,32.0,30.02,SSW,207,10.0,23.0,60,0.00,,,0.00,meteohub,2013-02-15 15:47:00,
2013-02-15 10:52:00,45.7,32.2,30.02,SSW,207,6.0,23.0,59,0.00,,,0.00,meteohub,2013-02-15 15:52:00,
2013-02-15 10:57:00,45.9,31.1,30.01,SSW,192,7.0,23.0,56,0.00,,,0.00,meteohub,2013-02-15 15:57:00,
2013-02-15 11:02:00,45.9,31.5,30.01,SW,220,4.0,20.0,57,0.00,,,0.00,meteohub,2013-02-15 16:02:00,
2013-02-15 11:07:00,46.2,31.5,30.01,SW,215,7.0,20.0,56,0.00,,,0.00,meteohub,2013-02-15 16:07:00,
2013-02-15 11:12:00,46.0,31.3,30.01,WSW,238,2.0,19.0,56,0.00,,,0.00,meteohub,2013-02-15 16:12:00,
2013-02-15 11:17:00,46.2,30.9,30.01,South,188,11.0,22.0,55,0.00,,,0.00,meteohub,2013-02-15 16:17:00,
2013-02-15 11:22:00,46.6,31.3,30.01,SW,230,9.0,22.0,55,0.00,,,0.00,meteohub,2013-02-15 16:22:00,
2013-02-15 11:27:00,46.8,30.9,30.00,SW,219,5.0,20.0,54,0.00,,,0.00,meteohub,2013-02-15 16:27:00,
2013-02-15 11:32:00,46.9,31.1,30.00,SW,218,3.0,20.0,54,0.00,,,0.00,meteohub,2013-02-15 16:32:00,
2013-02-15 11:37:00,47.1,31.3,30.00,SSW,198,6.0,19.0,54,0.00,,,0.00,meteohub,2013-02-15 16:37:00,
2013-02-15 11:42:00,46.9,31.1,29.99,SSW,197,10.0,22.0,54,0.00,,,0.00,meteohub,2013-02-15 16:42:00,
2013-02-15 11:47:00,47.1,31.3,29.99,SW,216,8.0,22.0,54,0.00,,,0.00,meteohub,2013-02-15 16:47:00,
2013-02-15 11:52:00,47.1,31.3,29.99,SSW,205,23.0,23.0,54,0.00,,,0.00,meteohub,2013-02-15 16:52:00,
2013-02-15 11:57:00,47.5,32.2,29.99,SSW,208,8.0,23.0,55,0.00,,,0.00,meteohub,2013-02-15 16:57:00,
2013-02-15 12:02:00,47.8,32.5,29.99,SE,141,12.0,23.0,55,0.00,,,0.00,meteohub,2013-02-15 17:02:00,
2013-02-15 12:07:00,48.0,32.2,29.98,SSW,201,12.0,23.0,54,0.00,,,0.00,meteohub,2013-02-15 17:07:00,
2013-02-15 12:12:00,48.0,32.2,29.98,SSW,210,4.0,19.0,54,0.00,,,0.00,meteohub,2013-02-15 17:12:00,
2013-02-15 12:17:00,48.6,32.2,29.98,South,172,7.0,19.0,53,0.00,,,0.00,meteohub,2013-02-15 17:17:00,
2013-02-15 12:22:00,48.7,32.4,29.98,SSE,168,8.0,19.0,53,0.00,,,0.00,meteohub,2013-02-15 17:22:00,
2013-02-15 12:27:00,48.9,32.5,29.98,SW,227,12.0,18.0,53,0.00,,,0.00,meteohub,2013-02-15 17:27:00,
2013-02-15 12:32:00,48.9,32.0,29.97,SSW,210,7.0,18.0,52,0.00,,,0.00,meteohub,2013-02-15 17:32:00,
2013-02-15 12:37:00,48.9,32.5,29.97,South,189,8.0,20.0,53,0.00,,,0.00,meteohub,2013-02-15 17:37:00,
2013-02-15 12:42:00,48.9,32.5,29.97,SSW,210,5.0,20.0,53,0.00,,,0.00,meteohub,2013-02-15 17:42:00,
2013-02-15 12:47:00,48.9,32.5,29.97,SSE,166,9.0,20.0,53,0.00,,,0.00,meteohub,2013-02-15 17:47:00,
2013-02-15 12:52:00,49.1,32.7,29.96,South,187,8.0,19.0,53,0.00,,,0.00,meteohub,2013-02-15 17:52:00,
2013-02-15 12:57:00,49.3,32.9,29.96,SSW,206,13.0,19.0,53,0.00,,,0.00,meteohub,2013-02-15 17:57:00,
2013-02-15 13:02:00,49.3,32.9,29.96,SSE,159,8.0,19.0,53,0.00,,,0.00,meteohub,2013-02-15 18:02:00,
2013-02-15 13:07:00,49.3,32.9,29.96,SSW,193,8.0,18.0,53,0.00,,,0.00,meteohub,2013-02-15 18:07:00,
2013-02-15 13:12:00,49.5,33.1,29.96,SSW,208,3.0,18.0,53,0.00,,,0.00,meteohub,2013-02-15 18:12:00,
2013-02-15 13:17:00,50.2,33.3,29.96,SSW,195,5.0,18.0,52,0.00,,,0.00,meteohub,2013-02-15 18:17:00,
2013-02-15 13:22:00,50.4,33.4,29.96,SSW,211,2.0,16.0,52,0.00,,,0.00,meteohub,2013-02-15 18:22:00,
2013-02-15 13:27:00,50.4,32.9,29.95,SSW,197,5.0,17.0,51,0.00,,,0.00,meteohub,2013-02-15 18:27:00,
2013-02-15 13:32:00,50.5,33.6,29.95,SW,224,5.0,17.0,52,0.00,,,0.00,meteohub,2013-02-15 18:32:00,
2013-02-15 13:37:00,50.7,33.8,29.96,SW,222,15.0,17.0,52,0.00,,,0.00,meteohub,2013-02-15 18:37:00,
2013-02-15 13:42:00,50.5,33.6,29.95,SSW,209,4.0,21.0,52,0.00,,,0.00,meteohub,2013-02-15 18:42:00,
2013-02-15 13:47:00,50.7,33.8,29.95,South,189,1.0,21.0,52,0.00,,,0.00,meteohub,2013-02-15 18:47:00,
2013-02-15 13:52:00,50.9,33.4,29.95,West,272,9.0,21.0,51,0.00,,,0.00,meteohub,2013-02-15 18:52:00,
2013-02-15 13:57:00,50.7,33.8,29.95,SE,144,5.0,17.0,52,0.00,,,0.00,meteohub,2013-02-15 18:57:00,
2013-02-15 14:02:00,50.5,33.6,29.95,SW,218,8.0,17.0,52,0.00,,,0.00,meteohub,2013-02-15 19:02:00,
2013-02-15 14:07:00,50.4,33.8,29.95,South,191,9.0,19.0,53,0.00,,,0.00,meteohub,2013-02-15 19:07:00,
2013-02-15 14:12:00,50.5,34.0,29.95,SSE,156,4.0,19.0,53,0.00,,,0.00,meteohub,2013-02-15 19:12:00,
2013-02-15 14:17:00,50.2,33.6,29.94,SW,215,4.0,19.0,53,0.00,,,0.00,meteohub,2013-02-15 19:17:00,
2013-02-15 14:22:00,49.8,33.8,29.95,South,172,8.0,19.0,54,0.00,,,0.00,meteohub,2013-02-15 19:22:00,
2013-02-15 14:27:00,50.0,34.5,29.95,South,170,7.0,19.0,55,0.00,,,0.00,meteohub,2013-02-15 19:27:00,
2013-02-15 14:32:00,50.4,34.9,29.94,SSE,162,6.0,18.0,55,0.00,,,0.00,meteohub,2013-02-15 19:32:00,
2013-02-15 14:37:00,50.2,34.7,29.94,SSW,192,8.0,15.0,55,0.00,,,0.00,meteohub,2013-02-15 19:37:00,
2013-02-15 14:42:00,50.2,34.7,29.94,South,183,8.0,14.0,55,0.00,,,0.00,meteohub,2013-02-15 19:42:00,
2013-02-15 14:47:00,50.2,34.2,29.94,SSE,162,7.0,16.0,54,0.00,,,0.00,meteohub,2013-02-15 19:47:00,
2013-02-15 14:52:00,50.4,34.9,29.94,SSE,151,10.0,19.0,55,0.00,,,0.00,meteohub,2013-02-15 19:52:00,
2013-02-15 14:57:00,50.4,34.9,29.94,SSE,155,11.0,19.0,55,0.00,,,0.00,meteohub,2013-02-15 19:57:00,
2013-02-15 15:02:00,50.4,35.2,29.94,SSW,195,7.0,19.0,56,0.00,,,0.00,meteohub,2013-02-15 20:02:00,
2013-02-15 15:07:00,50.4,35.2,29.94,South,181,10.0,18.0,56,0.00,,,0.00,meteohub,2013-02-15 20:07:00,
2013-02-15 15:12:00,50.4,35.2,29.94,South,179,6.0,18.0,56,0.00,,,0.00,meteohub,2013-02-15 20:12:00,
2013-02-15 15:17:00,50.2,35.1,29.94,SSE,167,13.0,16.0,56,0.00,,,0.00,meteohub,2013-02-15 20:17:00,
2013-02-15 15:22:00,49.8,34.7,29.94,South,182,10.0,16.0,56,0.00,,,0.00,meteohub,2013-02-15 20:22:00,
2013-02-15 15:27:00,49.8,34.7,29.93,SSW,208,7.0,16.0,56,0.00,,,0.00,meteohub,2013-02-15 20:27:00,
2013-02-15 15:32:00,49.6,35.1,29.94,SW,216,15.0,17.0,57,0.00,,,0.00,meteohub,2013-02-15 20:32:00,
2013-02-15 15:37:00,49.5,34.9,29.93,SE,146,8.0,17.0,57,0.00,,,0.00,meteohub,2013-02-15 20:37:00,
2013-02-15 15:42:00,49.5,34.9,29.94,SSW,208,9.0,17.0,57,0.00,,,0.00,meteohub,2013-02-15 20:42:00,
2013-02-15 15:47:00,49.5,34.9,29.93,South,170,14.0,16.0,57,0.00,,,0.00,meteohub,2013-02-15 20:47:00,
2013-02-15 15:52:00,49.3,34.7,29.93,SSE,168,4.0,17.0,57,0.00,,,0.00,meteohub,2013-02-15 20:52:00,
2013-02-15 15:57:00,49.1,34.9,29.94,South,170,12.0,17.0,58,0.00,,,0.00,meteohub,2013-02-15 20:57:00,
2013-02-15 16:02:00,48.7,34.7,29.93,SW,216,7.0,17.0,58,0.00,,,0.00,meteohub,2013-02-15 21:02:00,
2013-02-15 16:07:00,48.7,35.1,29.93,South,176,9.0,17.0,59,0.00,,,0.00,meteohub,2013-02-15 21:07:00,
2013-02-15 16:12:00,48.6,34.9,29.94,SSW,195,6.0,19.0,59,0.00,,,0.00,meteohub,2013-02-15 21:12:00,
2013-02-15 16:17:00,48.4,34.7,29.94,SSE,168,4.0,19.0,59,0.00,,,0.00,meteohub,2013-02-15 21:17:00,
2013-02-15 16:22:00,48.2,34.9,29.93,SE,141,7.0,19.0,60,0.00,,,0.00,meteohub,2013-02-15 21:22:00,
2013-02-15 16:27:00,48.0,34.9,29.93,SSE,157,6.0,19.0,60,0.00,,,0.00,meteohub,2013-02-15 21:27:00,
2013-02-15 16:32:00,48.0,34.9,29.93,South,191,4.0,17.0,60,0.00,,,0.00,meteohub,2013-02-15 21:32:00,
2013-02-15 16:37:00,48.0,35.2,29.94,South,184,7.0,14.0,61,0.00,,,0.00,meteohub,2013-02-15 21:37:00,
2013-02-15 16:42:00,47.8,35.1,29.94,South,178,6.0,10.0,61,0.00,,,0.00,meteohub,2013-02-15 21:42:00,
2013-02-15 16:47:00,47.7,34.9,29.94,SSW,207,6.0,10.0,61,0.00,,,0.00,meteohub,2013-02-15 21:47:00,
2013-02-15 16:52:00,47.3,34.9,29.94,SSW,211,4.0,10.0,62,0.00,,,0.00,meteohub,2013-02-15 21:52:00,
2013-02-15 16:57:00,46.9,35.1,29.94,South,187,6.0,11.0,63,0.00,,,0.00,meteohub,2013-02-15 21:57:00,
2013-02-15 17:02:00,46.6,34.7,29.94,South,185,1.0,11.0,63,0.00,,,0.00,meteohub,2013-02-15 22:02:00,
2013-02-15 17:07:00,46.2,34.7,29.94,SSE,159,2.0,11.0,64,0.00,,,0.00,meteohub,2013-02-15 22:07:00,
2013-02-15 17:12:00,46.0,34.9,29.94,South,176,5.0,9.0,65,0.00,,,0.00,meteohub,2013-02-15 22:12:00,
2013-02-15 17:17:00,45.7,35.1,29.94,SSW,199,2.0,9.0,66,0.00,,,0.00,meteohub,2013-02-15 22:17:00,
2013-02-15 17:22:00,45.3,34.7,29.94,SSW,203,2.0,9.0,66,0.00,,,0.00,meteohub,2013-02-15 22:22:00,
2013-02-15 17:27:00,45.1,34.9,29.94,South,182,4.0,7.0,67,0.00,,,0.00,meteohub,2013-02-15 22:27:00,
2013-02-15 17:32:00,44.8,34.9,29.94,South,184,0.0,7.0,68,0.00,,,0.00,meteohub,2013-02-15 22:32:00,
2013-02-15 17:37:00,44.4,34.5,29.94,South,178,5.0,8.0,68,0.00,,,0.00,meteohub,2013-02-15 22:37:00,
2013-02-15 17:42:00,44.2,34.7,29.94,SSE,164,11.0,11.0,69,0.00,,,0.00,meteohub,2013-02-15 22:42:00,
2013-02-15 17:48:00,44.2,34.7,29.94,SSE,163,5.0,13.0,69,0.00,,,0.00,meteohub,2013-02-15 22:48:00,
2013-02-15 17:53:00,44.1,34.9,29.94,SSW,202,2.0,13.0,70,0.00,,,0.00,meteohub,2013-02-15 22:53:00,
2013-02-15 17:58:00,43.9,35.1,29.94,South,173,4.0,13.0,71,0.00,,,0.00,meteohub,2013-02-15 22:58:00,
2013-02-15 18:03:00,43.5,34.7,29.95,SE,145,6.0,11.0,71,0.00,,,0.00,meteohub,2013-02-15 23:03:00,
2013-02-15 18:08:00,43.3,34.9,29.95,SSW,196,2.0,11.0,72,0.00,,,0.00,meteohub,2013-02-15 23:08:00,
2013-02-15 18:13:00,43.2,34.7,29.95,SW,226,3.0,8.0,72,0.00,,,0.00,meteohub,2013-02-15 23:13:00,
2013-02-15 18:18:00,43.0,34.9,29.95,SSW,197,2.0,11.0,73,0.00,,,0.00,meteohub,2013-02-15 23:18:00,
2013-02-15 18:23:00,42.8,35.1,29.95,SSW,199,1.0,11.0,74,0.00,,,0.00,meteohub,2013-02-15 23:23:00,
2013-02-15 18:28:00,42.6,34.9,29.95,SSW,193,3.0,11.0,74,0.00,,,0.00,meteohub,2013-02-15 23:28:00,
2013-02-15 18:33:00,42.6,34.9,29.95,SSW,195,1.0,11.0,74,0.00,,,0.00,meteohub,2013-02-15 23:33:00,
2013-02-15 18:38:00,42.4,35.1,29.95,SW,218,3.0,11.0,75,0.00,,,0.00,meteohub,2013-02-15 23:38:00,
2013-02-15 18:43:00,42.3,34.9,29.95,SSW,211,1.0,9.0,75,0.00,,,0.00,meteohub,2013-02-15 23:43:00,
2013-02-15 18:48:00,42.3,35.2,29.95,SSW,206,0.0,9.0,76,0.00,,,0.00,meteohub,2013-02-15 23:48:00,
2013-02-15 18:53:00,42.1,35.1,29.96,SSW,199,4.0,8.0,76,0.00,,,0.00,meteohub,2013-02-15 23:53:00,
2013-02-15 18:58:00,41.9,34.9,29.96,SW,225,0.0,8.0,76,0.00,,,0.00,meteohub,2013-02-15 23:58:00,
2013-02-15 19:03:00,41.7,34.7,29.96,SW,224,0.0,8.0,76,0.00,,,0.00,meteohub,2013-02-16 00:03:00,
2013-02-15 19:08:00,41.5,34.5,29.96,South,188,2.0,8.0,76,0.00,,,0.00,meteohub,2013-02-16 00:08:00,
2013-02-15 19:13:00,41.5,34.9,29.96,South,189,5.0,6.0,77,0.00,,,0.00,meteohub,2013-02-16 00:13:00,
2013-02-15 19:18:00,41.5,34.9,29.96,SSW,198,1.0,7.0,77,0.00,,,0.00,meteohub,2013-02-16 00:18:00,
2013-02-15 19:23:00,41.4,35.1,29.96,SW,214,2.0,7.0,78,0.00,,,0.00,meteohub,2013-02-16 00:23:00,
2013-02-15 19:28:00,41.4,35.1,29.96,SSW,206,1.0,7.0,78,0.00,,,0.00,meteohub,2013-02-16 00:28:00,
2013-02-15 19:33:00,41.4,35.1,29.96,SSW,199,0.0,7.0,78,0.00,,,0.00,meteohub,2013-02-16 00:33:00,
2013-02-15 19:38:00,41.2,34.9,29.96,SW,220,3.0,7.0,78,0.00,,,0.00,meteohub,2013-02-16 00:38:00,
2013-02-15 19:43:00,41.2,34.9,29.96,SSW,205,2.0,7.0,78,0.00,,,0.00,meteohub,2013-02-16 00:43:00,
2013-02-15 19:48:00,41.0,34.7,29.96,SSW,205,0.0,7.0,78,0.00,,,0.00,meteohub,2013-02-16 00:48:00,
2013-02-15 19:53:00,41.0,35.1,29.96,SSW,201,3.0,7.0,79,0.00,,,0.00,meteohub,2013-02-16 00:53:00,
2013-02-15 19:58:00,41.0,35.1,29.96,SSW,194,0.0,6.0,79,0.00,,,0.00,meteohub,2013-02-16 00:58:00,
2013-02-15 20:03:00,40.8,34.9,29.96,South,191,3.0,6.0,79,0.00,,,0.00,meteohub,2013-02-16 01:03:00,
2013-02-15 20:08:00,40.8,34.9,29.96,South,191,0.0,6.0,79,0.00,,,0.00,meteohub,2013-02-16 01:08:00,
2013-02-15 20:13:00,40.8,34.9,29.96,South,191,1.0,6.0,79,0.00,,,0.00,meteohub,2013-02-16 01:13:00,
2013-02-15 20:18:00,40.8,34.9,29.96,South,191,1.0,3.0,79,0.00,,,0.00,meteohub,2013-02-16 01:18:00,
2013-02-15 20:23:00,40.5,34.5,29.96,South,191,0.0,3.0,79,0.00,,,0.00,meteohub,2013-02-16 01:23:00,
2013-02-15 20:28:00,40.3,34.3,29.96,South,191,0.0,3.0,79,0.00,,,0.00,meteohub,2013-02-16 01:28:00,
2013-02-15 20:33:00,39.9,34.3,29.96,South,191,0.0,2.0,80,0.00,,,0.00,meteohub,2013-02-16 01:33:00,
2013-02-15 20:38:00,39.7,34.2,29.96,South,191,2.0,2.0,80,0.00,,,0.00,meteohub,2013-02-16 01:38:00,
2013-02-15 20:43:00,39.4,33.8,29.96,South,191,0.0,3.0,80,0.00,,,0.00,meteohub,2013-02-16 01:43:00,
2013-02-15 20:48:00,39.0,33.6,29.96,South,190,2.0,3.0,81,0.00,,,0.00,meteohub,2013-02-16 01:48:00,
2013-02-15 20:53:00,38.8,33.8,29.96,South,190,2.0,3.0,82,0.00,,,0.00,meteohub,2013-02-16 01:53:00,
2013-02-15 20:58:00,38.7,33.6,29.96,SSE,147,2.0,3.0,82,0.00,,,0.00,meteohub,2013-02-16 01:58:00,
2013-02-15 21:04:00,38.7,34.0,29.96,SSE,159,1.0,5.0,83,0.00,,,0.00,meteohub,2013-02-16 02:04:00,
2013-02-15 21:09:00,38.7,34.2,29.96,SSE,168,0.0,6.0,84,0.00,,,0.00,meteohub,2013-02-16 02:09:00,
2013-02-15 21:14:00,38.5,34.2,29.96,SSE,168,2.0,6.0,84,0.00,,,0.00,meteohub,2013-02-16 02:14:00,
2013-02-15 21:19:00,38.1,33.8,29.96,SSE,168,0.0,6.0,84,0.00,,,0.00,meteohub,2013-02-16 02:19:00,
2013-02-15 21:24:00,37.9,33.6,29.96,South,187,0.0,5.0,84,0.00,,,0.00,meteohub,2013-02-16 02:24:00,
2013-02-15 21:29:00,37.8,33.4,29.96,South,187,1.0,4.0,84,0.00,,,0.00,meteohub,2013-02-16 02:29:00,
2013-02-15 21:34:00,37.8,33.6,29.96,South,187,0.0,4.0,85,0.00,,,0.00,meteohub,2013-02-16 02:34:00,
2013-02-15 21:39:00,37.6,33.4,29.96,South,187,0.0,4.0,85,0.00,,,0.00,meteohub,2013-02-16 02:39:00,
2013-02-15 21:44:00,37.6,33.8,29.96,South,187,0.0,4.0,86,0.00,,,0.00,meteohub,2013-02-16 02:44:00,
2013-02-15 21:49:00,37.2,33.1,29.97,South,188,2.0,4.0,85,0.00,,,0.00,meteohub,2013-02-16 02:49:00,
2013-02-15 21:54:00,36.9,32.7,29.97,NW,310,0.0,4.0,85,0.00,,,0.00,meteohub,2013-02-16 02:54:00,
2013-02-15 21:59:00,36.9,33.1,29.97,NW,310,0.0,4.0,86,0.00,,,0.00,meteohub,2013-02-16 02:59:00,
2013-02-15 22:04:00,36.9,33.1,29.97,NW,310,1.0,3.0,86,0.00,,,0.00,meteohub,2013-02-16 03:04:00,
2013-02-15 22:09:00,36.7,32.9,29.98,NW,310,0.0,4.0,86,0.00,,,0.00,meteohub,2013-02-16 03:09:00,
2013-02-15 22:14:00,36.5,32.7,29.97,NW,310,1.0,4.0,86,0.00,,,0.00,meteohub,2013-02-16 03:14:00,
2013-02-15 22:19:00,36.5,33.1,29.97,NW,310,0.0,4.0,87,0.00,,,0.00,meteohub,2013-02-16 03:19:00,
2013-02-15 22:24:00,36.3,32.9,29.97,NW,310,0.0,2.0,87,0.00,,,0.00,meteohub,2013-02-16 03:24:00,
2013-02-15 22:29:00,36.1,32.4,29.97,NW,310,0.0,2.0,86,0.00,,,0.00,meteohub,2013-02-16 03:29:00,
2013-02-15 22:34:00,35.8,32.4,29.97,NW,310,0.0,2.0,87,0.00,,,0.00,meteohub,2013-02-16 03:34:00,
2013-02-15 22:39:00,35.4,31.6,29.97,NW,310,0.0,2.0,86,0.00,,,0.00,meteohub,2013-02-16 03:39:00,
2013-02-15 22:44:00,35.1,31.6,29.97,NW,310,1.0,2.0,87,0.00,,,0.00,meteohub,2013-02-16 03:44:00,
2013-02-15 22:49:00,34.7,31.3,29.96,NW,310,0.0,3.0,87,0.00,,,0.00,meteohub,2013-02-16 03:49:00,
2013-02-15 22:54:00,34.5,31.1,29.96,NW,310,0.0,3.0,87,0.00,,,0.00,meteohub,2013-02-16 03:54:00,
2013-02-15 22:59:00,34.5,31.3,29.96,NW,310,0.0,3.0,88,0.00,,,0.00,meteohub,2013-02-16 03:59:00,
2013-02-15 23:04:00,34.2,30.9,29.96,NW,310,0.0,2.0,88,0.00,,,0.00,meteohub,2013-02-16 04:04:00,
2013-02-15 23:09:00,34.2,30.9,29.96,NW,310,0.0,2.0,88,0.00,,,0.00,meteohub,2013-02-16 04:09:00,
2013-02-15 23:14:00,34.2,30.9,29.97,WSW,248,0.0,2.0,88,0.00,,,0.00,meteohub,2013-02-16 04:14:00,
2013-02-15 23:19:00,33.8,30.6,29.97,WSW,248,0.0,2.0,88,0.00,,,0.00,meteohub,2013-02-16 04:19:00,
2013-02-15 23:25:00,34.0,31.1,29.96,WSW,248,0.0,2.0,89,0.00,,,0.00,meteohub,2013-02-16 04:25:00,
2013-02-15 23:30:00,34.2,31.3,29.96,WSW,248,0.0,2.0,89,0.00,,,0.00,meteohub,2013-02-16 04:30:00,
2013-02-15 23:35:00,34.0,31.1,29.96,WSW,247,0.0,1.0,89,0.00,,,0.00,meteohub,2013-02-16 04:35:00,
2013-02-15 23:40:00,33.6,30.7,29.96,WSW,247,0.0,3.0,89,0.00,,,0.00,meteohub,2013-02-16 04:40:00,
2013-02-15 23:45:00,33.4,30.6,29.96,WSW,247,0.0,3.0,89,0.00,,,0.00,meteohub,2013-02-16 04:45:00,
2013-02-15 23:50:00,33.3,30.4,29.96,WSW,247,0.0,2.0,89,0.00,,,0.00,meteohub,2013-02-16 04:50:00,
2013-02-15 23:55:00,33.3,30.4,29.96,WSW,247,0.0,1.0,89,0.00,,,0.00,meteohub,2013-02-16 04:55:00,